Temp
-10 -10 -10 -10 -9 -9 -9 -10 -10 -11 -11 -10 -10 -10 -9 -9 -9 -9 -9 -9 -9 -9 -8 -8 -8 -8 -8 -8 -7 -7 -8 -8 -8 -8 -8 -8 -8 -9 -9 -9 -9 -9 -8 -8 -8 -8 -8 -8 -8
-11 -11 -11 -10 -9 -9 -9 -9 -10 -10 -11 -11 -10 -10 -10 -10 -10 -9 -9 -9 -9 -9 -9 -9 -8 -8 -8 -8 -8 -8 -8 -8 -8 -8 -8 -9 -9 -9 -9 -9 -9 -9 -9 -8 -8 -8 -8 -8 -8
-12 -12 -11 -10 -10 -9 -9 -9 -10 -10 -10 -11 -11 -10 -10 -10 -10 -10 -10 -9 -9 -9 -9 -9 -8 -8 -9 -8 -8 -8 -8 -8 -8 -8 -9 -9 -9 -9 -9 -9 -9 -9 -9 -9 -8 -8 -8 -8 -8
-12 -12 -12 -11 -10 -9 -9 -9 -10 -10 -10 -11 -11 -10 -10 -10 -10 -10 -10 -9 -9 -9 -9 -9 -9 -8 -8 -9 -9 -8 -8 -8 -8 -9 -9 -9 -8 -9 -9 -9 -9 -9 -9 -9 -8 -8 -8 -8 -8
-12 -13 -12 -11 -11 -10 -9 -9 -10 -10 -10 -10 -10 -11 -10 -10 -10 -10 -10 -10 -9 -9 -9 -9 -9 -9 -9 -8 -9 -9 -8 -8 -8 -9 -9 -9 -9 -9 -9 -9 -9 -9 -9 -9 -9 -9 -9 -9 -9
-13 -13 -13 -12 -11 -11 -10 -10 -10 -10 -10 -10 -11 -11 -10 -10 -10 -11 -10 -10 -10 -9 -9 -9 -9 -9 -9 -9 -9 -9 -9 -9 -9 -8 -9 -9 -9 -9 -9 -9 -9 -9 -9 -9 -9 -9 -9 -9 -9
-13 -13 -12 -12 -12 -11 -11 -11 -10 -10 -10 -10 -10 -11 -11 -10 -10 -10 -10 -10 -10 -10 -10 -9 -9 -9 -9 -9 -9 -9 -9 -9 -9 -9 -9 -9 -9 -9 -9 -9 -9 -9 -9 -9 -9 -9 -9 -9 -9
-14 -14 -12 -12 -12 -12 -12 -12 -11 -11 -11 -11 -11 -11 -11 -11 -11 -11 -11 -11 -10 -10 -10 -10 -10 -10 -9 -9 -9 -9 -9 -9 -9 -9 -9 -9 -9 -9 -9 -9 -9 -9 -9 -9 -9 -9 -9 -9 -9
-13 -14 -13 -12 -12 -12 -13 -12 -12 -12 -12 -12 -12 -12 -12 -12 -11 -11 -10 -10 -10 -10 -10 -10 -10 -10 -10 -9 -9 -9 -9 -9 -9 -9 -9 -9 -9 -9 -9 -9 -9 -9 -9 -9 -9 -9 -9 -9 -9
-15 -14 -13 -13 -13 -12 -12 -13 -13 -13 -13 -12 -12 -12 -12 -12 -11 -11 -11 -10 -10 -10 -10 -10 -10 -10 -10 -10 -10 -9 -9 -9 -9 -9 -9 -9 -9 -9 -9 -9 -9 -9 -9 -9 -9 -9 -9 -9 -9
-15 -15 -14 -14 -13 -13 -13 -13 -13 -13 -13 -13 -13 -12 -12 -12 -11 -11 -11 -11 -11 -11 -11 -10 -10 -10 -10 -10 -11 -10 -10 -9 -9 -9 -9 -9 -9 -9 -9 -9 -9 -9 -9 -9 -9 -9 -9 -9 -9
-15 -15 -13 -13 -14 -14 -13 -13 -12 -13 -13 -13 -13 -13 -13 -12 -12 -11 -11 -11 -11 -11 -11 -10 -10 -10 -10 -10 -10 -10 -11 -11 -10 -9 -9 -9 -9 -9 -9 -9 -9 -9 -9 -9 -9 -9 -9 -9 -9
-14 -14 -14 -14 -15 -14 -13 -13 -13 -13 -13 -12 -12 -13 -12 -12 -12 -12 -12 -11 -11 -11 -11 -11 -11 -11 -10 -10 -10 -11 -10 -11 -11 -11 -10 -9 -9 -9 -9 -9 -9 -9 -9 -9 -9 -9 -9 -9 -9
-13 -14 -15 -14 -14 -13 -13 -13 -13 -13 -13 -13 -12 -12 -12 -12 -12 -12 -12 -12 -12 -11 -11 -11 -11 -11 -11 -10 -10 -10 -10 -10 -10 -10 -11 -10 -10 -9 -9 -9 -9 -9 -9 -9 -9 -9 -9 -10 -10
-13 -14 -14 -14 -14 -13 -13 -13 -13 -13 -13 -13 -13 -12 -12 -12 -12 -12 -12 -12 -12 -11 -11 -11 -11 -11 -11 -11 -11 -11 -10 -10 -11 -10 -10 -10 -11 -10 -10 -9 -9 -9 -9 -9 -9 -9 -9 -9 -9
-14 -14 -15 -15 -15 -15 -14 -14 -14 -13 -13 -13 -13 -13 -13 -12 -12 -13 -13 -12 -12 -12 -12 -11 -11 -11 -11 -11 -10 -11 -11 -11 -11 -11 -11 -11 -10 -11 -11 -10 -10 -9 -9 -9 -9 -9 -9 -9 -9
-15 -15 -15 -15 -15 -15 -15 -15 -15 -14 -14 -14 -14 -14 -13 -13 -13 -13 -13 -13 -13 -12 -12 -11 -11 -11 -11 -11 -11 -11 -11 -11 -11 -11 -11 -11 -11 -10 -11 -11 -11 -10 -10 -9 -9 -9 -9 -9 -10
-17 -17 -16 -16 -16 -16 -16 -15 -15 -15 -15 -15 -14 -14 -14 -14 -13 -14 -13 -13 -13 -13 -12 -12 -11 -11 -11 -11 -11 -11 -11 -11 -11 -11 -11 -11 -11 -11 -11 -11 -11 -11 -11 -10 -10 -10 -9 -9 -10
-18 -17 -17 -17 -16 -16 -16 -16 -15 -15 -15 -15 -15 -15 -14 -14 -14 -13 -13 -13 -13 -13 -12 -12 -12 -11 -11 -11 -12 -11 -11 -11 -12 -12 -12 -11 -11 -11 -11 -11 -11 -11 -11 -11 -10 -10 -10 -10 -10
-18 -17 -17 -17 -16 -16 -16 -16 -16 -15 -15 -15 -15 -14 -14 -14 -14 -14 -14 -13 -13 -13 -12 -12 -12 -12 -12 -11 -11 -12 -12 -11 -11 -11 -11 -12 -12 -12 -12 -11 -11 -11 -11 -11 -11 -11 -11 -10 -10
-17 -17 -17 -17 -17 -17 -16 -16 -16 -15 -15 -15 -15 -15 -14 -14 -14 -14 -14 -13 -13 -13 -13 -12 -12 -12 -12 -12 -12 -12 -12 -12 -12 -12 -11 -11 -12 -12 -12 -12 -12 -11 -11 -11 -11 -12 -11 -11 -11
-16 -17 -17 -17 -17 -16 -16 -16 -16 -15 -15 -15 -15 -15 -14 -14 -14 -14 -13 -13 -13 -13 -13 -12 -12 -12 -12 -12 -12 -12 -12 -12 -12 -12 -12 -12 -11 -12 -12 -12 -12 -12 -12 -11 -11 -11 -11 -11 -11
-16 -16 -16 -16 -16 -16 -16 -16 -15 -15 -15 -15 -15 -15 -14 -14 -14 -14 -14 -14 -13 -13 -13 -12 -12 -12 -12 -12 -12 -12 -12 -12 -12 -12 -12 -12 -12 -12 -12 -12 -12 -12 -12 -12 -12 -12 -11 -11 -12
-17 -16 -16 -16 -16 -16 -16 -16 -15 -15 -15 -15 -15 -15 -15 -15 -14 -14 -14 -14 -13 -13 -12 -12 -12 -13 -14 -14 -14 -14 -14 -13 -13 -12 -12 -13 -13 -12 -12 -12 -12 -12 -12 -12 -12 -12 -12 -12 -12
-17 -17 -16 -16 -16 -16 -16 -16 -16 -15 -15 -15 -15 -15 -15 -15 -15 -15 -14 -14 -14 -15 -15 -16 -16 -17 -17 -17 -17 -17 -17 -17 -17 -15 -14 -13 -13 -13 -13 -12 -12 -13 -13 -13 -13 -13 -12 -12 -12
-17 -17 -17 -17 -16 -16 -16 -16 -16 -16 -16 -16 -15 -15 -15 -15 -15 -15 -15 -15 -15 -15 -16 -17 -17 -17 -17 -17 -17 -17 -17 -17 -17 -18 -17 -16 -14 -13 -13 -13 -12 -13 -13 -13 -13 -13 -13 -12 -12
-17 -17 -17 -17 -17 -17 -16 -16 -16 -16 -16 -16 -16 -16 -16 -16 -16 -16 -16 -16 -16 -16 -17 -17 -17 -17 -17 -17 -17 -17 -17 -17 -17 -17 -18 -18 -17 -16 -15 -14 -14 -13 -13 -13 -13 -13 -13 -13 -13
-17 -17 -17 -17 -17 -17 -17 -17 -17 -16 -16 -16 -16 -16 -16 -16 -16 -16 -16 -16 -16 -17 -17 -17 -17 -18 -18 -18 -18 -18 -17 -17 -17 -17 -18 -18 -19 -19 -18 -17 -15 -14 -13 -13 -13 -13 -13 -13 -14
-17 -17 -17 -17 -17 -17 -17 -17 -17 -17 -17 -17 -17 -17 -17 -16 -16 -17 -17 -17 -17 -17 -17 -17 -17 -18 -18 -18 -18 -18 -18 -18 -18 -18 -19 -19 -19 -20 -20 -20 -19 -18 -16 -14 -13 -14 -13 -13 -13
-17 -17 -17 -17 -17 -17 -17 -17 -17 -17 -17 -17 -17 -17 -17 -17 -17 -17 -17 -17 -17 -17 -17 -18 -18 -18 -18 -18 -18 -18 -18 -18 -19 -19 -19 -19 -19 -20 -20 -19 -20 -19 -18 -17 -16 -15 -15 -15 -14
Height
5848 5850 5854 5859 5865 5865 5867 5871 5872 5874 5876 5876 5878 5880 5882 5882 5882 5885 5882 5883 5883 5883 5882 5881 5881 5882 5881 5882 5883 5883 5884 5883 5883 5884 5885 5886 5886 5887 5888 5889 5889 5889 5890 5891 5891 5891 5893 5893 5894
5844 5847 5850 5854 5859 5860 5864 5867 5869 5871 5873 5874 5876 5878 5880 5880 5881 5882 5883 5882 5883 5884 5883 5881 5882 5882 5881 5882 5881 5883 5884 5884 5884 5884 5885 5886 5887 5888 5889 5889 5890 5890 5891 5893 5893 5894 5895 5896 5897
5843 5844 5847 5850 5852 5856 5859 5863 5866 5869 5870 5872 5875 5877 5878 5878 5879 5880 5881 5881 5882 5884 5884 5883 5881 5882 5881 5882 5882 5882 5884 5885 5884 5885 5885 5886 5887 5888 5889 5890 5890 5891 5892 5894 5895 5896 5896 5897 5898
5841 5843 5845 5847 5848 5854 5856 5860 5863 5865 5867 5869 5871 5875 5877 5876 5878 5878 5879 5880 5880 5883 5884 5884 5882 5882 5881 5881 5883 5883 5884 5884 5884 5885 5885 5885 5886 5887 5889 5890 5890 5891 5893 5894 5896 5897 5897 5898 5899
5835 5838 5842 5844 5846 5849 5852 5856 5860 5862 5863 5865 5867 5872 5875 5876 5876 5878 5879 5880 5879 5882 5883 5884 5884 5883 5882 5881 5881 5883 5884 5884 5885 5885 5885 5885 5886 5886 5887 5889 5890 5892 5893 5894 5895 5897 5897 5898 5899
5829 5830 5836 5842 5844 5846 5850 5853 5855 5858 5860 5863 5865 5869 5874 5875 5877 5878 5879 5880 5880 5881 5882 5883 5884 5884 5883 5882 5881 5880 5882 5884 5884 5885 5886 5885 5885 5886 5887 5887 5889 5891 5893 5894 5895 5896 5897 5898 5898
5822 5822 5829 5837 5841 5844 5847 5850 5852 5855 5857 5861 5863 5865 5869 5874 5876 5877 5878 5879 5880 5881 5882 5882 5884 5885 5884 5883 5882 5881 5881 5881 5883 5884 5885 5886 5886 5885 5886 5887 5888 5889 5891 5893 5894 5895 5896 5896 5897
5816 5815 5824 5831 5837 5841 5844 5847 5849 5851 5854 5857 5860 5863 5867 5870 5873 5874 5875 5876 5878 5879 5880 5881 5882 5884 5885 5884 5883 5882 5881 5881 5881 5882 5883 5884 5885 5885 5886 5885 5886 5887 5888 5890 5892 5893 5895 5896 5896
5808 5809 5818 5824 5831 5836 5841 5844 5845 5848 5851 5853 5857 5861 5863 5865 5868 5870 5872 5874 5875 5877 5878 5878 5879 5881 5883 5883 5883 5883 5882 5881 5881 5881 5881 5882 5883 5883 5884 5885 5885 5885 5886 5887 5889 5890 5891 5892 5894
5802 5806 5812 5819 5823 5831 5835 5841 5843 5845 5848 5849 5852 5856 5859 5861 5863 5866 5869 5870 5872 5873 5874 5875 5876 5877 5878 5880 5881 5882 5881 5880 5880 5880 5880 5879 5880 5880 5881 5881 5882 5883 5884 5884 5886 5887 5888 5888 5889
5798 5802 5808 5812 5817 5824 5829 5834 5839 5841 5843 5846 5849 5852 5855 5858 5860 5863 5865 5866 5868 5869 5870 5871 5872 5874 5875 5876 5877 5878 5880 5880 5879 5878 5878 5878 5877 5877 5877 5878 5878 5880 5881 5881 5882 5882 5883 5884 5885
5791 5797 5802 5807 5812 5817 5823 5828 5831 5834 5839 5842 5844 5847 5851 5855 5858 5860 5861 5863 5865 5867 5867 5867 5868 5870 5871 5872 5874 5875 5875 5876 5877 5877 5877 5876 5875 5874 5874 5874 5875 5875 5876 5877 5878 5878 5879 5879 5879
5786 5792 5796 5800 5806 5811 5815 5821 5824 5828 5831 5836 5840 5842 5846 5849 5853 5855 5857 5859 5860 5861 5863 5863 5864 5864 5866 5868 5868 5870 5870 5870 5871 5872 5874 5874 5874 5873 5872 5871 5870 5870 5871 5872 5872 5873 5874 5874 5875
5782 5785 5789 5794 5800 5805 5809 5813 5818 5822 5826 5830 5834 5837 5840 5843 5845 5847 5850 5852 5854 5855 5856 5858 5858 5860 5860 5861 5863 5864 5864 5865 5866 5867 5867 5869 5870 5869 5869 5869 5868 5867 5865 5865 5866 5867 5868 5869 5870
5774 5778 5782 5787 5792 5797 5802 5807 5809 5814 5817 5821 5825 5829 5831 5835 5837 5840 5842 5845 5846 5848 5849 5850 5852 5853 5853 5855 5855 5857 5858 5859 5860 5861 5861 5861 5862 5863 5864 5864 5864 5862 5861 5861 5860 5860 5861 5862 5862
5766 5770 5775 5781 5786 5790 5796 5800 5804 5808 5811 5814 5817 5821 5824 5826 5828 5830 5833 5836 5838 5839 5842 5843 5844 5845 5846 5846 5848 5849 5849 5850 5852 5852 5853 5854 5854 5854 5855 5857 5858 5857 5857 5856 5855 5854 5853 5853 5853
5759 5765 5770 5776 5781 5787 5791 5796 5799 5803 5806 5809 5811 5814 5816 5818 5820 5821 5823 5825 5827 5829 5831 5834 5836 5837 5838 5838 5838 5838 5839 5840 5841 5842 5843 5844 5845 5846 5846 5848 5849 5849 5849 5850 5849 5848 5846 5844 5843
5757 5762 5767 5772 5778 5782 5786 5791 5794 5798 5800 5803 5805 5807 5810 5811 5812 5815 5816 5817 5818 5819 5821 5823 5824 5826 5827 5828 5829 5829 5829 5829 5830 5831 5833 5834 5835 5837 5838 5839 5840 5840 5841 5842 5842 5841 5839 5839 5838
5756 5761 5765 5769 5774 5777 5781 5785 5789 5792 5794 5796 5798 5801 5803 5805 5806 5805 5806 5808 5810 5810 5811 5812 5813 5813 5814 5816 5817 5817 5818 5819 5819 5820 5822 5823 5824 5825 5826 5827 5828 5830 5831 5832 5833 5833 5833 5832 5830
5753 5757 5760 5764 5766 5770 5774 5777 5781 5785 5787 5789 5791 5793 5795 5797 5798 5799 5799 5797 5798 5799 5800 5799 5801 5802 5803 5803 5803 5804 5804 5805 5807 5808 5810 5811 5812 5813 5814 5814 5816 5818 5819 5820 5820 5821 5822 5823 5821
5750 5754 5758 5762 5763 5766 5768 5771 5775 5778 5781 5783 5785 5786 5788 5790 5791 5791 5790 5790 5790 5789 5788 5788 5787 5787 5788 5789 5790 5790 5790 5790 5790 5792 5794 5796 5799 5799 5800 5801 5804 5805 5807 5807 5808 5808 5808 5810 5810
5747 5751 5754 5758 5760 5762 5765 5768 5770 5772 5774 5777 5779 5781 5782 5782 5783 5783 5782 5780 5780 5779 5777 5775 5774 5771 5770 5770 5771 5772 5773 5773 5775 5776 5776 5779 5781 5784 5785 5786 5789 5791 5792 5795 5795 5795 5796 5796 5797
5746 5748 5751 5754 5756 5758 5761 5763 5766 5767 5769 5772 5774 5775 5776 5777 5777 5776 5775 5774 5771 5768 5765 5763 5762 5759 5757 5754 5752 5751 5753 5755 5756 5756 5758 5760 5762 5764 5767 5771 5772 5775 5777 5778 5780 5781 5781 5771 5767
5744 5746 5748 5750 5752 5755 5757 5759 5761 5763 5765 5767 5768 5769 5770 5771 5770 5768 5766 5765 5762 5759 5756 5753 5751 5748 5744 5741 5738 5735 5733 5732 5734 5735 5737 5739 5742 5745 5748 5751 5755 5757 5759 5761 5763 5765 5767 5760 5763
5741 5744 5746 5748 5748 5751 5752 5754 5756 5758 5760 5761 5763 5765 5765 5765 5765 5763 5761 5758 5754 5751 5747 5745 5742 5740 5737 5735 5731 5728 5724 5720 5716 5714 5714 5716 5719 5723 5728 5731 5734 5737 5741 5742 5743 5746 5748 5751 5751
5737 5739 5741 5742 5744 5746 5747 5750 5752 5754 5755 5757 5758 5759 5759 5758 5758 5756 5754 5752 5749 5745 5742 5740 5738 5735 5733 5730 5727 5723 5719 5714 5709 5702 5697 5693 5696 5700 5706 5711 5714 5716 5719 5723 5726 5727 5728 5731 5731
5732 5734 5737 5738 5740 5741 5744 5746 5747 5749 5750 5752 5752 5753 5752 5752 5751 5750 5748 5746 5744 5741 5738 5734 5732 5729 5726 5723 5719 5716 5712 5708 5702 5696 5688 5679 5676 5679 5684 5689 5694 5697 5699 5702 5706 5708 5710 5710 5713
5728 5731 5732 5734 5736 5737 5739 5741 5742 5744 5745 5746 5747 5747 5746 5746 5746 5745 5743 5742 5739 5736 5733 5730 5728 5725 5722 5718 5714 5710 5706 5701 5696 5690 5683 5674 5667 5665 5667 5670 5672 5677 5681 5682 5686 5688 5691 5691 5691
5723 5725 5728 5730 5732 5734 5736 5737 5738 5739 5740 5740 5741 5741 5741 5741 5741 5740 5739 5737 5735 5733 5730 5727 5724 5721 5718 5715 5711 5707 5702 5697 5692 5686 5680 5673 5667 5662 5660 5660 5660 5660 5661 5665 5667 5669 5671 5672 5671
5717 5720 5723 5725 5729 5730 5731 5734 5733 5734 5735 5736 5736 5737 5737 5736 5735 5734 5733 5731 5729 5728 5726 5723 5720 5717 5713 5711 5707 5703 5699 5694 5689 5684 5678 5673 5668 5664 5661 5658 5656 5652 5651 5651 5652 5652 5652 5651 5650
Wind_Speed
18 16 18 20 23 30 33 27 22 17 17 17 11 8 7 8 7 6 10 10 12 13 13 13 8 6 9 7 5 5 5 7 8 8 9 6 6 7 7 7 9 11 15 16 17 17 19 19 19
12 12 14 18 24 29 31 31 26 22 21 15 11 11 9 8 8 6 5 7 9 11 11 12 9 6 9 8 8 5 4 6 7 8 7 7 6 5 4 5 8 11 15 15 14 16 18 18 16
12 10 14 20 25 29 30 33 32 28 25 23 13 11 10 10 8 5 3 4 6 7 8 8 10 6 9 9 8 7 4 4 6 6 6 5 5 4 5 2 6 11 14 15 13 14 16 15 15
17 15 14 18 24 27 29 31 36 32 29 26 22 16 12 11 10 8 3 2 3 4 6 5 7 9 7 9 8 7 5 3 3 4 4 5 3 3 3 3 3 10 16 16 13 14 15 14 13
24 22 20 18 20 26 30 30 32 34 28 30 27 20 16 12 12 10 4 3 2 3 4 5 4 6 8 8 8 7 5 3 2 2 3 3 4 3 3 2 1 7 15 16 14 13 13 13 12
28 25 24 22 19 23 27 29 29 30 33 31 25 19 19 14 12 11 7 10 6 6 6 5 6 3 4 6 8 8 6 4 2 1 1 2 3 2 3 3 4 6 12 16 14 13 12 11 11
29 32 28 27 22 20 23 26 28 28 29 29 25 17 18 19 17 13 10 7 5 6 7 7 7 8 5 2 3 6 7 5 2 1 2 3 3 4 4 4 5 7 11 14 15 13 13 12 11
33 34 32 32 31 24 23 26 28 29 29 28 27 24 22 21 19 15 15 13 10 9 9 9 10 10 10 9 5 1 1 2 3 3 3 3 3 4 4 6 6 7 9 13 16 16 15 14 12
38 38 34 32 31 33 27 30 30 30 29 28 28 27 25 24 25 21 18 19 18 16 13 12 12 15 14 12 11 9 6 3 3 3 3 4 4 5 5 6 7 8 9 11 14 18 19 19 18
38 37 37 36 32 31 33 34 34 32 31 30 30 29 29 28 27 24 23 21 20 20 19 17 17 17 16 17 16 13 12 9 8 7 6 6 6 7 8 7 8 8 10 12 14 16 19 22 22
39 38 39 40 40 35 33 29 38 37 35 33 31 32 32 30 28 27 26 24 23 23 23 23 22 23 22 21 17 17 17 15 14 12 10 9 9 9 9 10 11 10 11 12 14 16 18 19 21
39 38 39 39 40 38 37 37 35 32 40 39 35 35 34 32 29 29 28 26 26 24 28 29 29 27 27 26 25 22 18 18 19 17 16 15 14 13 12 12 11 12 14 14 15 16 17 19 21
37 40 38 38 39 40 39 39 37 35 35 39 39 36 35 35 35 33 31 33 35 34 29 32 33 32 29 31 30 29 27 24 23 22 22 21 21 20 18 17 15 14 15 16 17 18 18 19 19
37 39 42 42 42 41 40 38 41 39 34 33 35 34 37 40 41 41 39 37 35 35 34 36 36 36 33 32 34 34 33 32 30 27 26 27 27 25 25 25 22 20 20 19 18 18 19 20 21
41 41 43 42 42 43 43 43 41 39 35 34 35 36 39 41 40 39 38 37 37 36 38 37 38 38 39 36 37 36 37 37 37 36 34 31 32 32 30 29 29 29 28 25 23 22 22 21 22
37 37 39 41 41 41 40 41 41 39 37 36 36 38 39 40 42 40 39 38 39 39 40 40 39 41 42 43 41 40 39 39 41 42 42 41 38 36 36 35 33 33 34 33 30 28 26 26 27
36 36 36 36 38 38 37 36 36 37 37 38 38 37 37 38 39 41 43 42 43 44 45 43 43 43 43 46 48 47 46 45 44 44 46 47 47 44 42 40 40 39 38 37 36 35 34 33 32
30 32 33 32 33 35 35 36 36 35 35 35 37 37 39 42 43 43 45 47 48 48 48 49 48 48 47 48 49 52 52 52 50 50 49 48 50 51 49 47 44 45 45 43 41 40 40 38 37
24 23 23 24 27 28 29 31 32 34 35 36 37 36 37 40 42 45 46 44 45 47 48 49 50 51 52 53 53 55 57 57 59 57 55 54 53 53 54 54 52 50 49 49 49 48 46 44 43
22 24 24 25 26 27 27 29 30 30 31 32 32 33 34 35 37 38 40 43 43 44 45 46 46 45 47 50 52 55 59 61 62 65 63 60 59 58 56 58 59 57 55 54 54 54 53 53 52
15 18 22 23 26 29 30 31 32 32 33 33 34 34 35 35 36 36 38 39 41 44 46 48 49 51 52 53 54 56 57 59 64 67 66 67 65 63 63 62 60 61 62 60 60 59 60 59 59
13 16 18 20 21 24 26 29 29 29 31 32 32 31 31 32 32 33 35 38 41 43 46 49 52 55 57 59 59 60 61 63 63 64 70 72 71 68 67 69 65 64 64 66 66 65 64 64 64
14 14 15 17 20 22 24 27 27 27 27 26 26 27 28 29 28 27 30 33 36 39 44 48 51 55 59 63 66 68 68 68 70 71 70 70 74 78 78 73 73 71 69 68 68 71 70 63 67
15 15 17 19 21 24 22 22 23 22 21 22 22 21 18 18 17 19 23 26 28 30 34 41 47 50 49 49 51 57 62 65 70 75 78 78 77 76 75 80 77 77 76 74 73 73 74 81 75
16 16 18 20 21 21 21 21 20 19 18 18 18 17 16 15 15 14 15 15 18 20 23 26 25 25 25 29 30 30 33 36 42 51 65 78 84 83 81 78 80 79 78 78 78 76 80 77 78
18 17 18 19 19 19 20 19 17 17 18 17 17 16 15 14 13 12 12 15 17 16 17 20 21 24 28 29 30 32 32 29 32 37 44 52 69 79 86 85 83 83 81 80 80 79 79 78 68
19 18 18 18 18 18 17 17 18 17 16 16 16 16 14 14 13 12 13 13 14 14 16 17 19 23 28 33 34 33 34 37 36 36 39 38 42 54 77 83 88 87 87 84 82 84 84 84 83
21 20 19 18 18 17 17 16 16 16 16 16 16 16 16 15 15 13 12 14 14 15 16 17 18 19 19 20 22 24 28 32 32 33 34 35 30 32 44 66 80 87 91 90 88 87 86 87 86
22 21 21 20 18 17 17 17 16 16 16 16 16 15 16 16 16 15 15 16 16 17 18 19 19 20 20 21 21 21 22 23 23 24 24 25 26 25 24 34 43 62 82 90 93 91 90 90 92
24 24 22 20 16 16 17 15 15 15 15 14 14 14 14 14 14 15 17 18 19 19 19 19 20 21 22 22 22 23 23 24 25 25 26 25 24 22 19 18 19 22 35 55 77 92 92 92 94
Wind_Direction
240 240 229 204 205 206 208 205 208 216 195 177 165 157 141 120 90 61 63 55 43 40 41 40 43 54 73 69 72 85 85 88 86 64 55 59 84 93 101 109 119 124 130 130 125 120 120 117 115
235 228 220 199 205 211 209 207 204 218 208 197 180 163 158 129 101 88 83 74 42 35 40 49 45 54 73 75 84 79 81 86 86 86 66 57 52 49 70 114 131 140 145 142 129 130 127 121 124
211 190 193 196 207 212 211 207 208 217 230 231 209 187 183 150 133 141 111 98 63 27 30 46 62 54 74 70 78 85 78 90 94 97 93 79 66 45 34 84 146 156 160 156 144 142 140 136 139
212 199 188 193 205 213 217 213 209 218 227 236 234 207 211 181 178 192 172 135 108 18 10 33 61 74 80 85 68 77 80 75 100 103 106 107 103 98 59 41 152 170 173 169 162 156 155 153 150
214 211 211 190 203 210 213 218 216 219 222 236 239 225 217 210 196 220 180 223 195 238 325 360 21 64 76 96 98 77 64 69 59 122 138 135 128 138 129 100 162 187 183 181 178 171 168 164 165
217 210 207 205 205 209 214 220 220 221 228 236 242 234 225 234 229 236 264 301 267 241 236 296 341 12 67 76 94 105 97 64 48 348 250 186 161 160 164 169 171 197 198 196 194 189 184 184 186
229 215 209 201 207 212 218 221 225 223 229 235 243 218 213 231 237 244 271 306 288 268 255 262 296 323 331 48 76 94 109 122 119 54 307 287 252 193 183 189 194 196 204 206 211 212 207 207 209
220 238 228 215 203 210 221 223 224 225 223 228 231 218 201 209 225 221 234 233 237 262 273 268 282 300 310 319 302 285 113 131 152 185 226 258 270 257 233 203 201 213 214 215 218 222 227 229 231
224 234 234 233 217 199 216 221 220 219 219 220 221 218 214 211 215 220 228 233 252 253 272 262 265 283 290 295 301 295 272 260 260 228 220 238 246 253 249 247 223 215 224 231 231 232 236 240 245
233 234 233 238 236 232 230 218 213 216 215 209 216 222 216 213 216 219 231 233 248 263 263 269 252 249 263 278 284 292 284 266 260 257 252 240 244 246 251 247 248 242 234 234 238 242 244 247 249
230 230 232 235 242 237 237 244 224 220 218 217 219 222 223 219 225 232 229 242 250 259 269 270 265 254 255 258 265 276 285 283 268 259 257 253 248 246 249 255 252 247 242 242 239 241 244 249 254
227 229 231 231 234 239 239 241 245 244 228 225 226 227 226 221 224 230 240 251 264 257 261 271 271 267 255 255 261 259 260 275 277 270 269 262 253 249 245 246 254 257 255 247 247 246 247 249 251
229 227 227 231 233 234 237 235 242 242 241 235 238 245 249 252 250 248 247 254 263 264 256 265 271 269 265 258 255 256 257 252 258 267 274 276 268 263 255 247 246 247 253 259 255 253 253 252 254
226 232 228 228 229 232 233 235 237 240 236 240 236 243 248 252 255 256 257 259 259 260 259 255 261 260 264 266 261 255 257 260 259 253 257 268 273 271 268 264 255 252 247 247 254 257 258 259 257
226 221 223 224 228 229 231 234 238 241 241 237 238 241 245 247 251 255 255 253 254 254 255 256 250 253 257 260 262 262 258 256 258 259 255 251 258 268 270 266 266 261 256 252 249 250 254 258 260
217 218 220 222 224 228 232 233 237 240 244 245 247 248 251 254 259 261 261 260 258 257 253 253 254 250 249 255 256 257 257 256 255 255 256 257 252 252 260 266 264 266 266 260 254 251 250 252 253
213 216 217 220 222 225 230 234 238 242 244 248 250 254 257 260 264 266 270 272 273 272 270 265 259 255 254 252 253 254 254 254 253 252 252 253 254 253 250 254 261 263 266 268 261 255 252 249 249
215 214 216 219 223 224 228 231 236 241 245 248 252 254 257 260 263 265 267 269 272 273 272 271 269 266 261 255 252 251 252 253 255 255 254 254 254 255 256 256 253 258 263 264 265 261 259 256 256
216 216 220 221 223 224 226 231 234 238 242 246 249 252 255 259 262 267 270 270 271 271 269 268 269 269 267 265 262 257 252 251 251 253 256 255 254 254 252 252 252 254 257 261 266 266 265 266 264
214 214 210 209 214 220 222 225 229 236 240 244 249 253 258 262 264 265 267 270 271 270 270 270 267 264 263 264 263 260 260 257 253 252 252 253 254 255 255 253 251 251 251 255 260 265 266 267 268
218 217 222 224 223 226 227 229 229 230 234 240 246 253 258 262 264 265 267 268 270 272 273 272 272 271 269 265 262 262 259 257 257 254 251 250 250 252 254 255 255 251 251 251 253 257 262 264 266
211 217 227 231 237 240 236 237 237 238 242 247 252 257 262 265 268 269 270 272 272 272 273 274 274 275 274 273 269 265 262 261 257 254 256 253 249 248 251 254 254 255 253 250 251 253 257 261 262
219 222 227 233 237 239 239 241 239 244 247 250 251 253 256 260 265 268 270 274 276 276 276 275 274 274 272 272 272 272 269 263 260 258 254 251 254 252 250 253 255 254 255 254 252 251 252 256 254
219 225 230 234 237 242 244 242 240 241 242 245 250 252 253 259 265 278 285 287 285 283 280 276 272 271 274 279 281 280 278 274 267 261 256 254 250 249 252 252 252 254 253 255 256 255 252 255 260
226 232 239 239 238 240 238 236 239 240 243 246 244 247 251 259 271 280 296 310 318 316 305 299 296 294 298 304 304 305 306 296 286 275 263 256 252 250 247 249 252 252 253 254 255 257 256 256 258
239 242 245 243 240 237 236 235 239 239 244 246 248 253 259 272 278 294 304 314 320 328 320 304 295 294 293 295 292 295 300 308 314 309 293 273 255 250 247 246 247 252 252 252 254 258 259 258 254
243 250 248 244 242 243 243 241 242 244 247 250 256 264 270 278 290 307 323 323 327 338 346 336 321 304 293 295 294 291 293 298 303 313 322 310 276 258 247 246 245 247 252 253 253 253 257 259 261
244 241 241 245 247 247 245 244 241 245 253 258 264 271 278 283 288 296 311 316 324 333 336 336 334 335 331 329 324 314 306 308 310 312 321 337 332 284 262 251 247 246 248 253 254 255 254 257 260
241 239 237 242 243 244 242 240 243 251 258 264 269 275 280 282 288 296 302 308 313 320 324 325 326 329 329 330 330 327 325 327 331 334 342 346 348 348 312 279 269 261 250 249 254 257 258 258 260
238 236 236 240 242 242 240 239 244 253 261 266 273 278 282 289 297 305 308 308 309 312 315 318 323 325 326 326 326 323 325 332 336 339 343 344 345 348 342 331 315 292 278 268 261 258 261 265 265